New Roads False River Regiona, LA

8:26 PM CDT on September 22, 2019 (GMT -0500)
False River

Weather History for KHZR - May, 2019

Change the Weather History Date:

Sunday, May 19, 2019

  Actual Average (KBTR) Record (KBTR)
Temperature  
Mean Temperature 73 °F -  
Max Temperature 80 °F 85 °F 96 °F (1956)
Min Temperature 66 °F 65 °F 49 °F (2002)
Cooling Degree Days 8    
Growing Degree Days 23 (Base 50)    
Moisture  
Dew Point 71 °F    
Average Humidity 88    
Maximum Humidity 100    
Minimum Humidity 70    
Precipitation  
Precipitation 0.71 in - - ()
Sea Level Pressure  
Sea Level Pressure 29.93 in    
Wind  
Wind Speed 6 mph ()    
Max Wind Speed 23 mph    
Max Gust Speed 47 mph    
Visibility 9.8 miles    
Events Rain , Thunderstorm    
Averages and records for this station are not official NWS values.
T = Trace of Precipitation, MM = Missing Value Source: Averaged Metar Reports

Daily Weather History Graph

Daily Weather History Graph

Search for Another Location

Airport or City:

Astronomy

May. 19, 2019 Rise Set
Actual Time 6:08 AM CDT 7:56 PM CDT
Civil Twilight 5:42 AM CDT 8:22 PM CDT
Nautical Twilight 5:10 AM CDT 8:55 PM CDT
Astronomical Twilight 4:36 AM CDT 9:29 PM CDT
Moon 8:56 PM CDT (5/19) 6:52 AM CDT (5/19)
Length of Visible Light 14h 40m
Length of Day
13h 47m
Full, 99% of the Moon is Illuminated
May 19
Full
May 26
Last Quarter
Jun 3
New
Jun 10
First Quarter
Jun 17
Full

Hourly Weather History & Observations

Time (CDT) Temp. Heat Index Dew Point Humidity Pressure Visibility Wind Dir Wind Speed Gust Speed Precip Events Conditions
12:36 AM 77.0 °F - 73.4 °F 89% 29.89 in 10.0 mi SE 4.6 mph - N/A   Overcast
1:15 AM 77.0 °F - 73.4 °F 89% 29.88 in 10.0 mi SSE 6.9 mph - N/A   Mostly Cloudy
1:36 AM 77.0 °F - 73.4 °F 89% 29.87 in 10.0 mi SE 5.8 mph - N/A   Overcast
1:55 AM 77.0 °F - 73.4 °F 89% 29.87 in 10.0 mi SE 6.9 mph - N/A   Overcast
2:16 AM 77.0 °F - 73.4 °F 89% 29.87 in 10.0 mi SE 8.1 mph - N/A   Mostly Cloudy
2:34 AM 77.0 °F - 73.4 °F 89% 29.87 in 10.0 mi SE 9.2 mph - N/A   Mostly Cloudy
2:56 AM 75.2 °F - 73.4 °F 94% 29.86 in 10.0 mi SE 8.1 mph - N/A   Clear
3:15 AM 75.2 °F - 73.4 °F 94% 29.84 in 10.0 mi SE 8.1 mph - N/A   Unknown
3:55 AM 75.2 °F - 73.4 °F 94% 29.87 in 10.0 mi SE 6.9 mph - N/A   Mostly Cloudy
4:15 AM 75.2 °F - 73.4 °F 94% 29.86 in 10.0 mi ESE 6.9 mph - N/A   Mostly Cloudy
4:35 AM 75.2 °F - 73.4 °F 94% 29.85 in 10.0 mi SE 11.5 mph - N/A   Mostly Cloudy
4:55 AM 75.2 °F - 73.4 °F 94% 29.86 in 10.0 mi SE 9.2 mph - N/A   Scattered Clouds
5:16 AM 77.0 °F - 73.4 °F 89% 29.86 in 10.0 mi SE 10.4 mph - N/A   Mostly Cloudy
5:36 AM 77.0 °F - 73.4 °F 89% 29.86 in 10.0 mi SE 11.5 mph 16.1 mph N/A   Scattered Clouds
5:55 AM 77.0 °F - 73.4 °F 89% 29.85 in 10.0 mi North - - N/A Thunderstorm Thunderstorm
6:55 AM 77.0 °F - 73.4 °F 89% 29.87 in 10.0 mi SE 9.2 mph - N/A Rain , Thunderstorm Light Thunderstorms and Rain
7:15 AM 73.4 °F - 69.8 °F 88% 29.91 in 4.0 mi WSW 23.0 mph 47.2 mph 0.12 in Rain , Thunderstorm Heavy Thunderstorms and Rain
7:35 AM 66.2 °F - 66.2 °F 100% 29.92 in 4.0 mi SW 8.1 mph 11.5 mph 0.66 in Rain , Thunderstorm Thunderstorms and Rain
7:55 AM 66.2 °F - 66.2 °F 100% 29.96 in 10.0 mi Calm Calm - 0.70 in Rain , Thunderstorm Light Thunderstorms and Rain
9:15 AM 68.0 °F - 66.2 °F 94% 29.98 in 10.0 mi SE 4.6 mph - 0.01 in Rain Light Rain
9:35 AM 68.0 °F - 66.2 °F 94% 29.97 in 10.0 mi ESE 5.8 mph - 0.01 in   Mostly Cloudy
9:55 AM 68.0 °F - 68.0 °F 100% 29.98 in 10.0 mi SSE 8.1 mph - 0.01 in   Overcast
10:15 AM 68.0 °F - 68.0 °F 100% 29.99 in 10.0 mi South 4.6 mph - N/A   Overcast
10:35 AM 68.0 °F - 68.0 °F 100% 29.99 in 10.0 mi South 6.9 mph - N/A   Scattered Clouds
10:55 AM 68.0 °F - 68.0 °F 100% 30.00 in 10.0 mi South 6.9 mph - N/A   Mostly Cloudy
12:15 PM 71.6 °F - 69.8 °F 94% 30.00 in 10.0 mi South 4.6 mph - N/A   Overcast
12:35 PM 73.4 °F - 69.8 °F 88% 30.00 in 10.0 mi SE 8.1 mph - N/A   Scattered Clouds
1:15 PM 75.2 °F - 69.8 °F 83% 29.99 in 10.0 mi SE 8.1 mph - N/A   Mostly Cloudy
1:35 PM 75.2 °F - 69.8 °F 83% 29.98 in 10.0 mi SE 8.1 mph - N/A   Mostly Cloudy
1:58 PM 77.0 °F - 69.8 °F 78% - 10.0 mi SE 9.2 mph - N/A   Scattered Clouds
2:17 PM 77.0 °F - 69.8 °F 78% 29.97 in 10.0 mi ESE 5.8 mph - N/A   Mostly Cloudy
2:37 PM 75.2 °F - 69.8 °F 83% 29.97 in 10.0 mi ESE 5.8 mph - N/A   Overcast
2:55 PM 75.2 °F - 69.8 °F 83% 29.97 in 10.0 mi SE 5.8 mph - N/A   Overcast
3:16 PM 78.8 °F - 69.8 °F 74% 29.95 in 10.0 mi SE 5.8 mph - N/A   Scattered Clouds
3:35 PM 80.6 °F 83.9 °F 69.8 °F 70% 29.95 in 10.0 mi SSE 6.9 mph - N/A   Clear
3:56 PM 80.6 °F 83.9 °F 69.8 °F 70% 29.95 in 10.0 mi SSE 5.8 mph - N/A   Mostly Cloudy
4:16 PM 80.6 °F 83.9 °F 69.8 °F 70% 29.94 in 10.0 mi SE 6.9 mph - N/A   Overcast
5:36 PM 78.8 °F - 69.8 °F 74% 29.93 in 10.0 mi ESE 6.9 mph - N/A   Overcast
6:15 PM 78.8 °F - 69.8 °F 74% 29.92 in 10.0 mi SSE 3.5 mph - N/A   Mostly Cloudy
6:56 PM 77.0 °F - 69.8 °F 78% 29.92 in 10.0 mi Calm Calm - N/A   Mostly Cloudy
7:15 PM 77.0 °F - 69.8 °F 78% 29.92 in 10.0 mi ESE 3.5 mph - N/A   Mostly Cloudy
7:35 PM 75.2 °F - 71.6 °F 89% 29.93 in 10.0 mi ESE 3.5 mph - N/A   Scattered Clouds
7:56 PM 75.2 °F - 71.6 °F 89% 29.93 in 10.0 mi SE 4.6 mph - N/A   Scattered Clouds
8:16 PM 75.2 °F - 71.6 °F 89% 29.94 in 10.0 mi SE 4.6 mph - N/A   Clear
8:56 PM 75.2 °F - 69.8 °F 83% 29.94 in 10.0 mi Calm Calm - N/A   Clear
9:16 PM 73.4 °F - 69.8 °F 88% 29.94 in 10.0 mi ESE 4.6 mph - N/A   Clear
9:35 PM 73.4 °F - 71.6 °F 94% 29.95 in 10.0 mi Calm Calm - N/A   Clear
9:55 PM 73.4 °F - 71.6 °F 94% 29.95 in 10.0 mi Calm Calm - N/A   Clear
10:15 PM 73.4 °F - 71.6 °F 94% 29.97 in 10.0 mi North - - N/A   Clear
10:55 PM 73.4 °F - 69.8 °F 88% 29.98 in 10.0 mi ESE 3.5 mph - N/A   Clear
11:15 PM 73.4 °F - 71.6 °F 94% 29.98 in 10.0 mi Calm Calm - N/A   Clear
11:35 PM 73.4 °F - 71.6 °F 94% 29.98 in 10.0 mi ESE 4.6 mph - N/A   Clear
11:55 PM 73.4 °F - 71.6 °F 94% 29.97 in 10.0 mi SE 5.8 mph - N/A   Clear